Tracking 18630 objects as of 25-May-2017
HD Live streaming from Space Station
objects crossing your sky now

METEOR 1-11 DEB

Track METEOR 1-11 DEB now!
10-day predictions


NORAD ID: 36305
Int'l Code: 1972-022D
Perigee: 756.0 km
Apogee: 786.4 km
Inclination: 81.2 °
Period: 100.1 minutes
Semi major axis: 7142 km
RCS: 0.003 m2 (small)
Launch date: March 30, 1972
Source: Commonwealth of Independent States (former USSR) (CIS)
Launch site: PLESETSK MISSILE AND SPACE COMPLEX (PKMTR)

Note: This is SATELLITE DEBRIS
Your satellite tracking list
Your tracking list is empty





NASA's NSSDC Master Catalog

Two Line Element Set (TLE):
1 36305U 72022D   17124.51119763 +.00002104 +00000-0 +68549-3 0  9990
2 36305 081.2037 200.1679 0021223 108.5631 251.7863 14.38317371455700
Source of the keplerian elements: AFSPC